When you browse on this site, cookies collect data to enhance your experience and personalize the content and advertising you see.
Visit our Privacy Policy to learn more. By continuing to use the site, you agree to this use of cookies and data.
  • In Schweiz
  • Länderverzeichnis
  • Für 7 Tage
  • Wassertemperatur
  • Satellitenkarten
  • Wetterkarte
  • Widgets
  • user-avatar
    Anmelden

    Stündliche Wetter Bogolyubovka

    Heute, 27 Juni, Donnerstag

    Zeit Temperatur Niederschläge Wind Luftdruck Luftfeuchtigkeit
    00:00 +17°C° 0 mm 3 m/S 745 mmHg 86%
    01:00 +17°C° 0.2 mm 2 m/S 744 mmHg 89%
    02:00 +16°C° 0.2 mm 2 m/S 744 mmHg 91%
    03:00 +17°C° 0 mm 2 m/S 744 mmHg 91%
    04:00 +16°C° 0.3 mm 2 m/S 743 mmHg 93%
    05:00 +16°C° 0.3 mm 2 m/S 743 mmHg 94%
    06:00 +16°C° 0.3 mm 2 m/S 742 mmHg 96%
    07:00 +17°C° 0.1 mm 2 m/S 742 mmHg 94%
    08:00 +18°C° 0.1 mm 3 m/S 742 mmHg 92%
    09:00 +19°C° 0.1 mm 3 m/S 741 mmHg 90%
    10:00 +19°C° 0.8 mm 3 m/S 740 mmHg 91%
    11:00 +19°C° 0.8 mm 3 m/S 740 mmHg 93%
    12:00 +19°C° 0.8 mm 3 m/S 739 mmHg 95%
    13:00 +19°C° 2 mm 3 m/S 738 mmHg 95%
    14:00 +19°C° 2 mm 3 m/S 737 mmHg 95%
    15:00 +19°C° 2 mm 4 m/S 736 mmHg 95%
    16:00 +19°C° 4.3 mm 4 m/S 735 mmHg 96%
    17:00 +19°C° 4.3 mm 4 m/S 734 mmHg 97%
    18:00 +19°C° 4.3 mm 5 m/S 733 mmHg 97%
    19:00 +19°C° 2 mm 4 m/S 733 mmHg 97%
    20:00 +19°C° 2 mm 4 m/S 732 mmHg 96%
    21:00 +19°C° 2 mm 3 m/S 731 mmHg 95%
    22:00 +19°C° 0.9 mm 4 m/S 730 mmHg 95%
    23:00 +19°C° 0.9 mm 5 m/S 729 mmHg 96%

    Morgen, 28 Juni, Freitag

    Zeit Temperatur Niederschläge Wind Luftdruck Luftfeuchtigkeit
    00:00 +19°C° 0.9 mm 5 m/S 729 mmHg 96%
    01:00 +19°C° 0.1 mm 5 m/S 728 mmHg 96%
    02:00 +19°C° 0.1 mm 5 m/S 728 mmHg 95%
    03:00 +17°C° 0.1 mm 5 m/S 728 mmHg 95%
    04:00 +17°C° 0.1 mm 6 m/S 728 mmHg 94%
    05:00 +16°C° 0.1 mm 6 m/S 728 mmHg 93%
    06:00 +16°C° 0.1 mm 6 m/S 728 mmHg 93%
    07:00 +16°C° 0 mm 6 m/S 728 mmHg 91%
    08:00 +15°C° 0 mm 6 m/S 728 mmHg 90%
    09:00 +15°C° 0 mm 5 m/S 728 mmHg 89%
    10:00 +15°C° 0.1 mm 6 m/S 728 mmHg 87%
    11:00 +15°C° 0.1 mm 6 m/S 728 mmHg 86%
    12:00 +15°C° 0.1 mm 6 m/S 728 mmHg 84%
    13:00 +16°C° 0.2 mm 6 m/S 728 mmHg 83%
    14:00 +16°C° 0.2 mm 6 m/S 728 mmHg 82%
    15:00 +16°C° 0.2 mm 7 m/S 728 mmHg 80%
    16:00 +16°C° 0.1 mm 7 m/S 728 mmHg 80%
    17:00 +16°C° 0.1 mm 7 m/S 727 mmHg 81%
    18:00 +15°C° 0.1 mm 7 m/S 727 mmHg 81%
    19:00 +14°C° 0.1 mm 6 m/S 727 mmHg 82%
    20:00 +13°C° 0.1 mm 5 m/S 727 mmHg 84%
    21:00 +12°C° 0.1 mm 5 m/S 727 mmHg 85%
    22:00 +12°C° 0.2 mm 5 m/S 727 mmHg 88%
    23:00 +11°C° 0.2 mm 4 m/S 727 mmHg 91%

    übermorgen, 29 Juni, Samstag

    Zeit Temperatur Niederschläge Wind Luftdruck Luftfeuchtigkeit
    00:00 +11°C° 0.2 mm 4 m/S 727 mmHg 94%
    01:00 +10°C° 0.3 mm 5 m/S 727 mmHg 95%
    02:00 +9°C° 0.3 mm 6 m/S 727 mmHg 95%
    03:00 +9°C° 0.3 mm 6 m/S 727 mmHg 95%
    04:00 +9°C° 0.1 mm 6 m/S 727 mmHg 95%
    05:00 +9°C° 0.1 mm 6 m/S 727 mmHg 95%
    06:00 +9°C° 0.1 mm 5 m/S 727 mmHg 95%
    07:00 +10°C° 0.1 mm 5 m/S 728 mmHg 94%
    08:00 +10°C° 0.1 mm 5 m/S 728 mmHg 94%
    09:00 +12°C° 0.1 mm 5 m/S 729 mmHg 93%
    10:00 +10°C° 0.3 mm 6 m/S 729 mmHg 93%
    11:00 +10°C° 0.3 mm 6 m/S 730 mmHg 93%
    12:00 +10°C° 0.3 mm 6 m/S 730 mmHg 94%
    13:00 +10°C° 0.2 mm 6 m/S 731 mmHg 93%
    14:00 +10°C° 0.2 mm 7 m/S 732 mmHg 93%
    15:00 +9°C° 0.2 mm 7 m/S 733 mmHg 93%
    16:00 +9°C° 0.1 mm 6 m/S 733 mmHg 93%
    17:00 +9°C° 0.1 mm 6 m/S 734 mmHg 93%
    18:00 +8°C° 0.1 mm 5 m/S 734 mmHg 93%
    19:00 +8°C° 0 mm 5 m/S 735 mmHg 93%
    20:00 +8°C° 0 mm 5 m/S 735 mmHg 93%
    21:00 +8°C° 0 mm 4 m/S 736 mmHg 92%
    22:00 +8°C° 0 mm 4 m/S 736 mmHg 92%
    23:00 +8°C° 0 mm 4 m/S 736 mmHg 92%

    30 Juni, Sonntag

    Zeit Temperatur Niederschläge Wind Luftdruck Luftfeuchtigkeit
    00:00 +8°C° 0 mm 4 m/S 736 mmHg 92%
    01:00 +8°C° 0 mm 4 m/S 736 mmHg 91%
    02:00 +8°C° 0 mm 4 m/S 737 mmHg 90%
    03:00 +8°C° 0 mm 4 m/S 737 mmHg 89%
    04:00 +8°C° 0 mm 4 m/S 737 mmHg 88%
    05:00 +10°C° 0 mm 4 m/S 737 mmHg 88%
    06:00 +10°C° 0 mm 4 m/S 737 mmHg 88%
    07:00 +11°C° 0 mm 4 m/S 738 mmHg 85%
    08:00 +11°C° 0 mm 4 m/S 738 mmHg 82%
    09:00 +12°C° 0 mm 4 m/S 738 mmHg 80%
    10:00 +14°C° 0 mm 4 m/S 739 mmHg 74%
    11:00 +15°C° 0 mm 5 m/S 739 mmHg 69%
    12:00 +17°C° 0 mm 5 m/S 739 mmHg 64%
    13:00 +17°C° 0.1 mm 5 m/S 739 mmHg 62%
    14:00 +19°C° 0.1 mm 5 m/S 739 mmHg 61%
    15:00 +19°C° 0.1 mm 5 m/S 739 mmHg 60%
    16:00 +19°C° 0 mm 4 m/S 739 mmHg 62%
    17:00 +19°C° 0 mm 4 m/S 739 mmHg 65%
    18:00 +19°C° 0 mm 3 m/S 739 mmHg 68%
    19:00 +18°C° 0.2 mm 3 m/S 739 mmHg 75%
    20:00 +16°C° 0.2 mm 3 m/S 740 mmHg 82%
    21:00 +14°C° 0.2 mm 3 m/S 740 mmHg 88%
    22:00 +13°C° 0 mm 3 m/S 740 mmHg 90%
    23:00 +12°C° 0 mm 3 m/S 740 mmHg 91%

    1 Juli, Montag

    Zeit Temperatur Niederschläge Wind Luftdruck Luftfeuchtigkeit
    00:00 +12°C° 0 mm 3 m/S 740 mmHg 93%
    01:00 +11°C° 0 mm 3 m/S 740 mmHg 92%
    02:00 +11°C° 0 mm 3 m/S 741 mmHg 92%
    03:00 +11°C° 0 mm 3 m/S 741 mmHg 92%
    04:00 +11°C° 0 mm 3 m/S 741 mmHg 90%
    05:00 +12°C° 0 mm 2 m/S 741 mmHg 87%
    06:00 +13°C° 0 mm 2 m/S 741 mmHg 85%
    07:00 +14°C° 0 mm 2 m/S 742 mmHg 79%
    08:00 +16°C° 0 mm 2 m/S 742 mmHg 73%
    09:00 +18°C° 0 mm 2 m/S 742 mmHg 68%
    10:00 +19°C° 0 mm 2 m/S 742 mmHg 65%
    11:00 +20°C° 0 mm 2 m/S 742 mmHg 61%
    12:00 +21°C° 0 mm 2 m/S 742 mmHg 58%
    13:00 +21°C° 0 mm 2 m/S 741 mmHg 60%
    14:00 +23°C° 0 mm 2 m/S 741 mmHg 63%
    15:00 +22°C° 0 mm 3 m/S 741 mmHg 65%
    16:00 +23°C° 0 mm 2 m/S 740 mmHg 68%
    17:00 +23°C° 0 mm 2 m/S 740 mmHg 72%
    18:00 +23°C° 0 mm 2 m/S 740 mmHg 75%
    19:00 +21°C° 0 mm 3 m/S 740 mmHg 81%
    20:00 +20°C° 0 mm 3 m/S 740 mmHg 86%
    21:00 +18°C° 0 mm 3 m/S 739 mmHg 92%
    22:00 +18°C° 0 mm 3 m/S 739 mmHg 93%
    23:00 +18°C° 0 mm 3 m/S 739 mmHg 95%

    2 Juli, Dienstag

    Zeit Temperatur Niederschläge Wind Luftdruck Luftfeuchtigkeit
    00:00 +17°C° 0 mm 3 m/S 739 mmHg 96%
    01:00 +17°C° 0.2 mm 3 m/S 738 mmHg 96%
    02:00 +17°C° 0.2 mm 3 m/S 738 mmHg 97%
    03:00 +17°C° 0.2 mm 3 m/S 738 mmHg 97%
    04:00 +17°C° 0.8 mm 3 m/S 737 mmHg 97%
    05:00 +18°C° 0.8 mm 3 m/S 737 mmHg 97%
    06:00 +18°C° 0.8 mm 3 m/S 737 mmHg 97%
    07:00 +20°C° 0.3 mm 3 m/S 737 mmHg 94%
    08:00 +21°C° 0.3 mm 3 m/S 737 mmHg 91%
    09:00 +22°C° 0.3 mm 3 m/S 737 mmHg 88%
    10:00 +23°C° 0.4 mm 4 m/S 737 mmHg 82%
    11:00 +25°C° 0.4 mm 5 m/S 737 mmHg 75%
    12:00 +26°C° 0.4 mm 6 m/S 737 mmHg 69%
    13:00 +26°C° 0 mm 7 m/S 737 mmHg 68%
    14:00 +24°C° 0 mm 7 m/S 737 mmHg 67%
    15:00 +24°C° 0 mm 7 m/S 736 mmHg 65%
    16:00 +23°C° 0 mm 6 m/S 737 mmHg 67%
    17:00 +23°C° 0 mm 6 m/S 737 mmHg 70%
    18:00 +22°C° 0 mm 5 m/S 737 mmHg 72%
    19:00 +21°C° 0 mm 4 m/S 737 mmHg 75%
    20:00 +20°C° 0 mm 4 m/S 738 mmHg 78%
    21:00 +18°C° 0 mm 4 m/S 738 mmHg 80%
    22:00 +18°C° 0 mm 3 m/S 738 mmHg 83%
    23:00 +17°C° 0 mm 3 m/S 738 mmHg 86%
    Mehr zeigen